Location: Newark
(48.2308°N, 120.8549°W)
Time: 22:22:31
(UTC+00:00)

Transit 2A Rocket - Pass Details

Date: 28 May 2020
Orbit: 584 x 919 km, 66.7° (Epoch: 10 July)

Event Time Altitude Azimuth Distance (km) Brightness Sun altitude
Rises 05:54:09 0° 168° (SSE) 3,035 - -14.7°
Reaches altitude 10° 05:56:57 10° 151° (SSE) 2,185 - -14.9°
Exits shadow 05:59:39 19° 118° (ESE) 1,724 6.3 -15.1°
Maximum altitude 06:00:28 20° 106° (ESE) 1,708 6.4 -15.2°
Drops below altitude 10° 06:04:13 10° 61° (ENE) 2,358 7.5 -15.5°
Sets 06:07:22 0° 45° (NE) 3,359 8.6 -15.7°
